Year,Month,Day,Hour,Minute,Value (Times are PST for temperature in C)
2018,08,22,00,00,18.70
2018,08,22,00,01,18.60
2018,08,22,00,02,18.60
2018,08,22,00,03,18.60
2018,08,22,00,04,18.60
2018,08,22,00,05,18.60
2018,08,22,00,06,18.60
2018,08,22,00,07,18.60
2018,08,22,00,08,18.60
2018,08,22,00,09,18.50
2018,08,22,00,10,18.50
2018,08,22,00,11,18.50
2018,08,22,00,12,18.50
2018,08,22,00,13,18.50
2018,08,22,00,14,18.50
2018,08,22,00,15,18.50
2018,08,22,00,16,18.50
2018,08,22,00,17,18.40
2018,08,22,00,18,18.40
2018,08,22,00,19,18.40
2018,08,22,00,20,18.40
2018,08,22,00,21,18.40
2018,08,22,00,22,18.40
2018,08,22,00,23,18.40
2018,08,22,00,24,18.40
2018,08,22,00,25,18.40
2018,08,22,00,26,18.30
2018,08,22,00,27,18.30
2018,08,22,00,28,18.30
2018,08,22,00,29,18.30
2018,08,22,00,30,18.30
2018,08,22,00,31,18.30
2018,08,22,00,32,18.30
2018,08,22,00,33,18.20
2018,08,22,00,34,18.20
2018,08,22,00,35,18.20
2018,08,22,00,36,18.20
2018,08,22,00,37,18.20
2018,08,22,00,38,18.20
2018,08,22,00,39,18.20
2018,08,22,00,40,18.20
2018,08,22,00,41,18.20
2018,08,22,00,42,18.20
2018,08,22,00,43,18.20
2018,08,22,00,44,18.20
2018,08,22,00,45,18.20
2018,08,22,00,46,18.20
2018,08,22,00,47,18.20
2018,08,22,00,48,18.20
2018,08,22,00,49,18.20
2018,08,22,00,50,18.20
2018,08,22,00,51,18.20
2018,08,22,00,52,18.20
2018,08,22,00,53,18.20
2018,08,22,00,54,18.20
2018,08,22,00,55,18.20
2018,08,22,00,56,18.20
2018,08,22,00,57,18.20
2018,08,22,00,58,18.20
2018,08,22,00,59,18.10
2018,08,22,01,00,18.10
2018,08,22,01,01,18.10
2018,08,22,01,02,18.10
2018,08,22,01,03,18.00
2018,08,22,01,04,18.00
2018,08,22,01,05,18.00
2018,08,22,01,06,18.00
2018,08,22,01,07,17.90
2018,08,22,01,08,17.90
2018,08,22,01,09,17.90
2018,08,22,01,10,17.90
2018,08,22,01,11,17.80
2018,08,22,01,12,17.80
2018,08,22,01,13,17.80
2018,08,22,01,14,17.70
2018,08,22,01,15,17.70
2018,08,22,01,16,17.70
2018,08,22,01,17,17.70
2018,08,22,01,18,17.60
2018,08,22,01,19,17.60
2018,08,22,01,20,17.60
2018,08,22,01,21,17.50
2018,08,22,01,22,17.50
2018,08,22,01,23,17.40
2018,08,22,01,24,17.40
2018,08,22,01,25,17.40
2018,08,22,01,26,17.40
2018,08,22,01,27,17.30
2018,08,22,01,28,17.30
2018,08,22,01,29,17.30
2018,08,22,01,30,17.30
2018,08,22,01,31,17.30
2018,08,22,01,32,17.30
2018,08,22,01,33,17.30
2018,08,22,01,34,17.20
2018,08,22,01,35,17.20
2018,08,22,01,36,17.20
2018,08,22,01,37,17.20
2018,08,22,01,38,17.20
2018,08,22,01,39,17.20
2018,08,22,01,40,17.20
2018,08,22,01,41,17.20
2018,08,22,01,42,17.10
2018,08,22,01,43,17.10
2018,08,22,01,44,17.10
2018,08,22,01,45,17.10
2018,08,22,01,46,17.10
2018,08,22,01,47,17.10
2018,08,22,01,48,17.10
2018,08,22,01,49,17.10
2018,08,22,01,50,17.10
2018,08,22,01,51,17.10
2018,08,22,01,52,17.20
2018,08,22,01,53,17.20
2018,08,22,01,54,17.20
2018,08,22,01,55,17.20
2018,08,22,01,56,17.20
2018,08,22,01,57,17.20
2018,08,22,01,58,17.20
2018,08,22,01,59,17.20
2018,08,22,02,00,17.20
2018,08,22,02,01,17.20
2018,08,22,02,02,17.20
2018,08,22,02,03,17.20
2018,08,22,02,04,17.20
2018,08,22,02,05,17.20
2018,08,22,02,06,17.20
2018,08,22,02,07,17.10
2018,08,22,02,08,17.10
2018,08,22,02,09,17.10
2018,08,22,02,10,17.10
2018,08,22,02,11,17.10
2018,08,22,02,12,17.00
2018,08,22,02,13,17.00
2018,08,22,02,14,17.00
2018,08,22,02,15,16.90
2018,08,22,02,16,16.90
2018,08,22,02,17,16.90
2018,08,22,02,18,16.90
2018,08,22,02,19,16.90
2018,08,22,02,20,16.80
2018,08,22,02,21,16.80
2018,08,22,02,22,16.80
2018,08,22,02,23,16.80
2018,08,22,02,24,16.80
2018,08,22,02,25,16.70
2018,08,22,02,26,16.70
2018,08,22,02,27,16.70
2018,08,22,02,28,16.70
2018,08,22,02,29,16.70
2018,08,22,02,30,16.70
2018,08,22,02,31,16.60
2018,08,22,02,32,16.60
2018,08,22,02,33,16.60
2018,08,22,02,34,16.60
2018,08,22,02,35,16.60
2018,08,22,02,36,16.60
2018,08,22,02,37,16.50
2018,08,22,02,38,16.50
2018,08,22,02,39,16.50
2018,08,22,02,40,16.50
2018,08,22,02,41,16.50
2018,08,22,02,42,16.40
2018,08,22,02,43,16.40
2018,08,22,02,44,16.40
2018,08,22,02,45,16.40
2018,08,22,02,46,16.40
2018,08,22,02,47,16.40
2018,08,22,02,48,16.40
2018,08,22,02,49,16.30
2018,08,22,02,50,16.30
2018,08,22,02,51,16.30
2018,08,22,02,52,16.30
2018,08,22,02,53,16.30
2018,08,22,02,54,16.30
2018,08,22,02,55,16.30
2018,08,22,02,56,16.30
2018,08,22,02,57,16.20
2018,08,22,02,58,16.20
2018,08,22,02,59,16.20
2018,08,22,03,00,16.20
2018,08,22,03,01,16.20
2018,08,22,03,02,16.20
2018,08,22,03,03,16.20
2018,08,22,03,04,16.10
2018,08,22,03,05,16.10
2018,08,22,03,06,16.10
2018,08,22,03,07,16.10
2018,08,22,03,08,16.10
2018,08,22,03,09,16.10
2018,08,22,03,10,16.10
2018,08,22,03,11,16.10
2018,08,22,03,12,16.00
2018,08,22,03,13,16.00
2018,08,22,03,14,16.00
2018,08,22,03,15,16.00
2018,08,22,03,16,16.00
2018,08,22,03,17,16.10
2018,08,22,03,18,16.10
2018,08,22,03,19,16.10
2018,08,22,03,20,16.10
2018,08,22,03,21,16.10
2018,08,22,03,22,16.10
2018,08,22,03,23,16.10
2018,08,22,03,24,16.10
2018,08,22,03,25,16.10
2018,08,22,03,26,16.10
2018,08,22,03,27,16.10
2018,08,22,03,28,16.10
2018,08,22,03,29,16.00
2018,08,22,03,30,16.00
2018,08,22,03,31,16.00
2018,08,22,03,32,16.00
2018,08,22,03,33,16.00
2018,08,22,03,34,16.00
2018,08,22,03,35,16.00
2018,08,22,03,36,16.00
2018,08,22,03,37,16.10
2018,08,22,03,38,16.10
2018,08,22,03,39,16.10
2018,08,22,03,40,16.10
2018,08,22,03,41,16.10
2018,08,22,03,42,16.10
2018,08,22,03,43,16.20
2018,08,22,03,44,16.30
2018,08,22,03,45,16.30
2018,08,22,03,46,16.40
2018,08,22,03,47,16.50
2018,08,22,03,48,16.50
2018,08,22,03,49,16.50
2018,08,22,03,50,16.60
2018,08,22,03,51,16.60
2018,08,22,03,52,16.60
2018,08,22,03,53,16.60
2018,08,22,03,54,16.60
2018,08,22,03,55,16.60
2018,08,22,03,56,16.70
2018,08,22,03,57,16.70
2018,08,22,03,58,16.80
2018,08,22,03,59,16.80
2018,08,22,04,00,16.80
2018,08,22,04,01,16.80
2018,08,22,04,02,16.80
2018,08,22,04,03,16.80
2018,08,22,04,04,16.80
2018,08,22,04,05,16.80
2018,08,22,04,06,16.80
2018,08,22,04,07,16.80
2018,08,22,04,08,16.80
2018,08,22,04,09,16.80
2018,08,22,04,10,16.80
2018,08,22,04,11,16.80
2018,08,22,04,12,16.70
2018,08,22,04,13,16.70
2018,08,22,04,14,16.70
2018,08,22,04,15,16.60
2018,08,22,04,16,16.60
2018,08,22,04,17,16.60
2018,08,22,04,18,16.50
2018,08,22,04,19,16.50
2018,08,22,04,20,16.40
2018,08,22,04,21,16.40
2018,08,22,04,22,16.40
2018,08,22,04,23,16.40
2018,08,22,04,24,16.40
2018,08,22,04,25,16.40
2018,08,22,04,26,16.40
2018,08,22,04,27,16.40
2018,08,22,04,28,16.40
2018,08,22,04,29,16.40
2018,08,22,04,30,16.40
2018,08,22,04,31,16.40
2018,08,22,04,32,16.40
2018,08,22,04,33,16.40
2018,08,22,04,34,16.40
2018,08,22,04,35,16.40
2018,08,22,04,36,16.40
2018,08,22,04,37,16.40
2018,08,22,04,38,16.40
2018,08,22,04,39,16.40
2018,08,22,04,40,16.40
2018,08,22,04,41,16.30
2018,08,22,04,42,16.30
2018,08,22,04,43,16.30
2018,08,22,04,44,16.30
2018,08,22,04,45,16.30
2018,08,22,04,46,16.30
2018,08,22,04,47,16.30
2018,08,22,04,48,16.40
2018,08,22,04,49,16.40
2018,08,22,04,50,16.40
2018,08,22,04,51,16.40
2018,08,22,04,52,16.40
2018,08,22,04,53,16.40
2018,08,22,04,54,16.40
2018,08,22,04,55,16.40
2018,08,22,04,56,16.50
2018,08,22,04,57,16.50
2018,08,22,04,58,16.50
2018,08,22,04,59,16.50
2018,08,22,05,00,16.50
2018,08,22,05,01,16.50
2018,08,22,05,02,16.50
2018,08,22,05,03,16.50
2018,08,22,05,04,16.50
2018,08,22,05,05,16.50
2018,08,22,05,06,16.50
2018,08,22,05,07,16.50
2018,08,22,05,08,16.50
2018,08,22,05,09,16.50
2018,08,22,05,10,16.50
2018,08,22,05,11,16.50
2018,08,22,05,12,16.50
2018,08,22,05,13,16.50
2018,08,22,05,14,16.50
2018,08,22,05,15,16.50
2018,08,22,05,16,16.50
2018,08,22,05,17,16.50
2018,08,22,05,18,16.50
2018,08,22,05,19,16.50
2018,08,22,05,20,16.50
2018,08,22,05,21,16.50
2018,08,22,05,22,16.50
2018,08,22,05,23,16.50
2018,08,22,05,24,16.50
2018,08,22,05,25,16.50
2018,08,22,05,26,16.50
2018,08,22,05,27,16.50
2018,08,22,05,28,16.50
2018,08,22,05,29,16.50
2018,08,22,05,30,16.40
2018,08,22,05,31,16.40
2018,08,22,05,32,16.40
2018,08,22,05,33,16.40
2018,08,22,05,34,16.40
2018,08,22,05,35,16.40
2018,08,22,05,36,16.40
2018,08,22,05,37,16.40
2018,08,22,05,38,16.30
2018,08,22,05,39,16.30
2018,08,22,05,40,16.30
2018,08,22,05,41,16.30
2018,08,22,05,42,16.30
2018,08,22,05,43,16.20
2018,08,22,05,44,16.20
2018,08,22,05,45,16.20
2018,08,22,05,46,16.20
2018,08,22,05,47,16.20
2018,08,22,05,48,16.20
2018,08,22,05,49,16.20
2018,08,22,05,50,16.20
2018,08,22,05,51,16.20
2018,08,22,05,52,16.20
2018,08,22,05,53,16.20
2018,08,22,05,54,16.20
2018,08,22,05,55,16.20
2018,08,22,05,56,16.20
2018,08,22,05,57,16.20
2018,08,22,05,58,16.20
2018,08,22,05,59,16.20
2018,08,22,06,00,16.20
2018,08,22,06,01,16.20
2018,08,22,06,02,16.20
2018,08,22,06,03,16.20
2018,08,22,06,04,16.20
2018,08,22,06,05,16.20
2018,08,22,06,06,16.20
2018,08,22,06,07,16.20
2018,08,22,06,08,16.20
2018,08,22,06,09,16.20
2018,08,22,06,10,16.20
2018,08,22,06,11,16.20
2018,08,22,06,12,16.20
2018,08,22,06,13,16.20
2018,08,22,06,14,16.20
2018,08,22,06,15,16.20
2018,08,22,06,16,16.20
2018,08,22,06,17,16.20
2018,08,22,06,18,16.20
2018,08,22,06,19,16.20
2018,08,22,06,20,16.20
2018,08,22,06,21,16.20
2018,08,22,06,22,16.10
2018,08,22,06,23,16.10
2018,08,22,06,24,16.10
2018,08,22,06,25,16.10
2018,08,22,06,26,16.10
2018,08,22,06,27,16.10
2018,08,22,06,28,16.10
2018,08,22,06,29,16.10
2018,08,22,06,30,16.10
2018,08,22,06,31,16.10
2018,08,22,06,32,16.10
2018,08,22,06,33,16.10
2018,08,22,06,34,16.10
2018,08,22,06,35,16.10
2018,08,22,06,36,16.10
2018,08,22,06,37,16.10
2018,08,22,06,38,16.10
2018,08,22,06,39,16.10
2018,08,22,06,40,16.10
2018,08,22,06,41,16.10
2018,08,22,06,42,16.10
2018,08,22,06,43,16.10
2018,08,22,06,44,16.10
2018,08,22,06,45,16.10
2018,08,22,06,46,16.10
2018,08,22,06,47,16.10
2018,08,22,06,48,16.10
2018,08,22,06,49,16.10
2018,08,22,06,50,16.10
2018,08,22,06,51,16.10
2018,08,22,06,52,16.10
2018,08,22,06,53,16.10
2018,08,22,06,54,16.10
2018,08,22,06,55,16.10
2018,08,22,06,56,16.10
2018,08,22,06,57,16.10
2018,08,22,06,58,16.20
2018,08,22,06,59,16.20
2018,08,22,07,00,16.20
2018,08,22,07,01,16.20
2018,08,22,07,02,16.20
2018,08,22,07,03,16.20
2018,08,22,07,04,16.20
2018,08,22,07,05,16.20
2018,08,22,07,06,16.20
2018,08,22,07,07,16.20
2018,08,22,07,08,16.20
2018,08,22,07,09,16.20
2018,08,22,07,10,16.20
2018,08,22,07,11,16.20
2018,08,22,07,12,16.20
2018,08,22,07,13,16.20
2018,08,22,07,14,16.20
2018,08,22,07,15,16.20
2018,08,22,07,16,16.20
2018,08,22,07,17,16.20
2018,08,22,07,18,16.30
2018,08,22,07,19,16.30
2018,08,22,07,20,16.30
2018,08,22,07,21,16.30
2018,08,22,07,22,16.30
2018,08,22,07,23,16.30
2018,08,22,07,24,16.30
2018,08,22,07,25,16.30
2018,08,22,07,26,16.40
2018,08,22,07,27,16.40
2018,08,22,07,28,16.40
2018,08,22,07,29,16.40
2018,08,22,07,30,16.40
2018,08,22,07,31,16.40
2018,08,22,07,32,16.40
2018,08,22,07,33,16.40
2018,08,22,07,34,16.50
2018,08,22,07,35,16.50
2018,08,22,07,36,16.50
2018,08,22,07,37,16.50
2018,08,22,07,38,16.50
2018,08,22,07,39,16.60
2018,08,22,07,40,16.60
2018,08,22,07,41,16.60
2018,08,22,07,42,16.60
2018,08,22,07,43,16.60
2018,08,22,07,44,16.60
2018,08,22,07,45,16.60
2018,08,22,07,46,16.60
2018,08,22,07,47,16.60
2018,08,22,07,48,16.70
2018,08,22,07,49,16.70
2018,08,22,07,50,16.70
2018,08,22,07,51,16.70
2018,08,22,07,52,16.70
2018,08,22,07,53,16.80
2018,08,22,07,54,16.80
2018,08,22,07,55,16.80
2018,08,22,07,56,16.80
2018,08,22,07,57,16.90
2018,08,22,07,58,16.90
2018,08,22,07,59,16.90
2018,08,22,08,00,17.00
2018,08,22,08,01,17.00
2018,08,22,08,02,17.10
2018,08,22,08,03,17.10
2018,08,22,08,04,17.20
2018,08,22,08,05,17.20
2018,08,22,08,06,17.20
2018,08,22,08,07,17.30
2018,08,22,08,08,17.30
2018,08,22,08,09,17.30
2018,08,22,08,10,17.30
2018,08,22,08,11,17.30
2018,08,22,08,12,17.40
2018,08,22,08,13,17.40
2018,08,22,08,14,17.40
2018,08,22,08,15,17.50
2018,08,22,08,16,17.60
2018,08,22,08,17,17.60
2018,08,22,08,18,17.60
2018,08,22,08,19,17.70
2018,08,22,08,20,17.70
2018,08,22,08,21,17.80
2018,08,22,08,22,17.80
2018,08,22,08,23,17.90
2018,08,22,08,24,17.90
2018,08,22,08,25,18.00
2018,08,22,08,26,18.10
2018,08,22,08,27,18.10
2018,08,22,08,28,18.20
2018,08,22,08,29,18.20
2018,08,22,08,30,18.30
2018,08,22,08,31,18.40
2018,08,22,08,32,18.40
2018,08,22,08,33,18.50
2018,08,22,08,34,18.60
2018,08,22,08,35,18.70
2018,08,22,08,36,18.80
2018,08,22,08,37,18.90
2018,08,22,08,38,19.00
2018,08,22,08,39,19.00
2018,08,22,08,40,19.10
2018,08,22,08,41,19.20
2018,08,22,08,42,19.30
2018,08,22,08,43,19.40
2018,08,22,08,44,19.50
2018,08,22,08,45,19.70
2018,08,22,08,46,19.70
2018,08,22,08,47,19.80
2018,08,22,08,48,20.00
2018,08,22,08,49,20.10
2018,08,22,08,50,20.20
2018,08,22,08,51,20.30
2018,08,22,08,52,20.40
2018,08,22,08,53,20.50
2018,08,22,08,54,20.60
2018,08,22,08,55,20.70
2018,08,22,08,56,20.80
2018,08,22,08,57,20.80
2018,08,22,08,58,20.90
2018,08,22,08,59,21.00
2018,08,22,09,00,21.10
2018,08,22,09,01,21.20
2018,08,22,09,02,21.30
2018,08,22,09,03,21.40
2018,08,22,09,04,21.50
2018,08,22,09,05,21.60
2018,08,22,09,06,21.60
2018,08,22,09,07,21.70
2018,08,22,09,08,21.80
2018,08,22,09,09,21.90
2018,08,22,09,10,22.00
2018,08,22,09,11,22.10
2018,08,22,09,12,22.10
2018,08,22,09,13,22.20
2018,08,22,09,14,22.30
2018,08,22,09,15,22.30
2018,08,22,09,16,22.40
2018,08,22,09,17,22.40
2018,08,22,09,18,22.50
2018,08,22,09,19,22.60
2018,08,22,09,20,22.70
2018,08,22,09,21,22.80
2018,08,22,09,22,22.80
2018,08,22,09,23,22.90
2018,08,22,09,24,23.00
2018,08,22,09,25,23.10
2018,08,22,09,26,23.20
2018,08,22,09,27,23.30
2018,08,22,09,28,23.30
2018,08,22,09,29,23.40
2018,08,22,09,30,23.50
2018,08,22,09,31,23.60
2018,08,22,09,32,23.70
2018,08,22,09,33,23.70
2018,08,22,09,34,23.80
2018,08,22,09,35,23.90
2018,08,22,09,36,24.00
2018,08,22,09,37,24.00
2018,08,22,09,38,24.10
2018,08,22,09,39,24.10
2018,08,22,09,40,24.20
2018,08,22,09,41,24.20
2018,08,22,09,42,24.30
2018,08,22,09,43,24.40
2018,08,22,09,44,24.40
2018,08,22,09,45,24.50
2018,08,22,09,46,24.60
2018,08,22,09,47,24.60
2018,08,22,09,48,24.70
2018,08,22,09,49,24.70
2018,08,22,09,50,24.70
2018,08,22,09,51,24.70
2018,08,22,09,52,24.70
2018,08,22,09,53,24.70
2018,08,22,09,54,24.80
2018,08,22,09,55,24.80
2018,08,22,09,56,24.80
2018,08,22,09,57,24.80
2018,08,22,09,58,24.90
2018,08,22,09,59,24.90
2018,08,22,10,00,24.90
2018,08,22,10,01,25.00
2018,08,22,10,02,25.10
2018,08,22,10,03,25.10
2018,08,22,10,04,25.20
2018,08,22,10,05,25.20
2018,08,22,10,06,25.30
2018,08,22,10,07,25.40
2018,08,22,10,08,25.50
2018,08,22,10,09,25.50
2018,08,22,10,10,25.60
2018,08,22,10,11,25.60
2018,08,22,10,12,25.70
2018,08,22,10,13,25.70
2018,08,22,10,14,25.80
2018,08,22,10,15,25.80
2018,08,22,10,16,25.80
2018,08,22,10,17,25.80
2018,08,22,10,18,25.80
2018,08,22,10,19,25.80
2018,08,22,10,20,25.80
2018,08,22,10,21,25.90
2018,08,22,10,22,25.90
2018,08,22,10,23,26.00
2018,08,22,10,24,26.10
2018,08,22,10,25,26.10
2018,08,22,10,26,26.20
2018,08,22,10,27,26.20
2018,08,22,10,28,26.20
2018,08,22,10,29,26.20
2018,08,22,10,30,26.20
2018,08,22,10,31,26.20
2018,08,22,10,32,26.20
2018,08,22,10,33,26.10
2018,08,22,10,34,26.10
2018,08,22,10,35,26.10
2018,08,22,10,36,26.10
2018,08,22,10,37,26.10
2018,08,22,10,38,26.20
2018,08,22,10,39,26.20
2018,08,22,10,40,26.30
2018,08,22,10,41,26.30
2018,08,22,10,42,26.30
2018,08,22,10,43,26.30
2018,08,22,10,44,26.30
2018,08,22,10,45,26.30
2018,08,22,10,46,26.30
2018,08,22,10,47,26.40
2018,08,22,10,48,26.50
2018,08,22,10,49,26.60
2018,08,22,10,50,26.70
2018,08,22,10,51,26.80
2018,08,22,10,52,26.90
2018,08,22,10,53,27.00
2018,08,22,10,54,27.00
2018,08,22,10,55,27.10
2018,08,22,10,56,27.20
2018,08,22,10,57,27.20
2018,08,22,10,58,27.10
2018,08,22,10,59,27.10
2018,08,22,11,00,27.00
2018,08,22,11,01,27.10
2018,08,22,11,02,27.10
2018,08,22,11,03,27.10
2018,08,22,11,04,27.10
2018,08,22,11,05,27.20
2018,08,22,11,06,27.30
2018,08,22,11,07,27.30
2018,08,22,11,08,27.40
2018,08,22,11,09,27.40
2018,08,22,11,10,27.40
2018,08,22,11,11,27.40
2018,08,22,11,12,27.30
2018,08,22,11,13,27.30
2018,08,22,11,14,27.20
2018,08,22,11,15,27.10
2018,08,22,11,16,27.00
2018,08,22,11,17,27.00
2018,08,22,11,18,27.00
2018,08,22,11,19,26.90
2018,08,22,11,20,27.00
2018,08,22,11,21,27.00
2018,08,22,11,22,27.00
2018,08,22,11,23,26.90
2018,08,22,11,24,26.90
2018,08,22,11,25,27.00
2018,08,22,11,26,27.00
2018,08,22,11,27,26.90
2018,08,22,11,28,26.90
2018,08,22,11,29,26.90
2018,08,22,11,30,26.90
2018,08,22,11,31,26.90
2018,08,22,11,32,26.90
2018,08,22,11,33,26.90
2018,08,22,11,34,26.90
2018,08,22,11,35,26.90
2018,08,22,11,36,26.90
2018,08,22,11,37,26.90
2018,08,22,11,38,26.90
2018,08,22,11,39,27.00
2018,08,22,11,40,27.10
2018,08,22,11,41,27.00
2018,08,22,11,42,27.00
2018,08,22,11,43,26.90
2018,08,22,11,44,26.70
2018,08,22,11,45,26.70
2018,08,22,11,46,26.70
2018,08,22,11,47,26.60
2018,08,22,11,48,26.60
2018,08,22,11,49,26.70
2018,08,22,11,50,26.70
2018,08,22,11,51,26.70
2018,08,22,11,52,26.70
2018,08,22,11,53,26.70
2018,08,22,11,54,26.80
2018,08,22,11,55,26.80
2018,08,22,11,56,26.80
2018,08,22,11,57,26.80
2018,08,22,11,58,26.70
2018,08,22,11,59,26.70
2018,08,22,12,00,26.80
2018,08,22,12,01,26.80
2018,08,22,12,02,26.80
2018,08,22,12,03,26.80
2018,08,22,12,04,26.80
2018,08,22,12,05,26.80
2018,08,22,12,06,26.70
2018,08,22,12,07,26.70
2018,08,22,12,08,26.70
2018,08,22,12,09,26.70
2018,08,22,12,10,26.60
2018,08,22,12,11,26.60
2018,08,22,12,12,26.60
2018,08,22,12,13,26.70
2018,08,22,12,14,26.70
2018,08,22,12,15,26.70
2018,08,22,12,16,26.70
2018,08,22,12,17,26.80
2018,08,22,12,18,26.70
2018,08,22,12,19,26.70
2018,08,22,12,20,26.60
2018,08,22,12,21,26.50
2018,08,22,12,22,26.50
2018,08,22,12,23,26.40
2018,08,22,12,24,26.50
2018,08,22,12,25,26.40
2018,08,22,12,26,26.40
2018,08,22,12,27,26.40
2018,08,22,12,28,26.40
2018,08,22,12,29,26.40
2018,08,22,12,30,26.40
2018,08,22,12,31,26.40
2018,08,22,12,32,26.40
2018,08,22,12,33,26.40
2018,08,22,12,34,26.40
2018,08,22,12,35,26.50
2018,08,22,12,36,26.50
2018,08,22,12,37,26.50
2018,08,22,12,38,26.50
2018,08,22,12,39,26.40
2018,08,22,12,40,26.40
2018,08,22,12,41,26.40
2018,08,22,12,42,26.50
2018,08,22,12,43,26.60
2018,08,22,12,44,26.60
2018,08,22,12,45,26.60
2018,08,22,12,46,26.60
2018,08,22,12,47,26.60
2018,08,22,12,48,26.60
2018,08,22,12,49,26.70
2018,08,22,12,50,26.80
2018,08,22,12,51,26.90
2018,08,22,12,52,26.90
2018,08,22,12,53,26.90
2018,08,22,12,54,27.00
2018,08,22,12,55,27.00
2018,08,22,12,56,27.10
2018,08,22,12,57,27.10
2018,08,22,12,58,27.10
2018,08,22,12,59,27.10
2018,08,22,13,00,27.20
2018,08,22,13,01,27.20
2018,08,22,13,02,27.20
2018,08,22,13,03,27.20
2018,08,22,13,04,27.20
2018,08,22,13,05,27.20
2018,08,22,13,06,27.20
2018,08,22,13,07,27.20
2018,08,22,13,08,27.10
2018,08,22,13,09,27.00
2018,08,22,13,10,26.90
2018,08,22,13,11,26.90
2018,08,22,13,12,26.80
2018,08,22,13,13,26.80
2018,08,22,13,14,26.80
2018,08,22,13,15,26.70
2018,08,22,13,16,26.70
2018,08,22,13,17,26.60
2018,08,22,13,18,26.60
2018,08,22,13,19,26.60
2018,08,22,13,20,26.60
2018,08,22,13,21,26.60
2018,08,22,13,22,26.60
2018,08,22,13,23,26.60
2018,08,22,13,24,26.60
2018,08,22,13,25,26.60
2018,08,22,13,26,26.70
2018,08,22,13,27,26.80
2018,08,22,13,28,26.80
2018,08,22,13,29,26.90
2018,08,22,13,30,27.00
2018,08,22,13,31,27.00
2018,08,22,13,32,27.10
2018,08,22,13,33,27.10
2018,08,22,13,34,27.10
2018,08,22,13,35,27.00
2018,08,22,13,36,26.90
2018,08,22,13,37,26.90
2018,08,22,13,38,26.90
2018,08,22,13,39,26.90
2018,08,22,13,40,26.90
2018,08,22,13,41,26.90
2018,08,22,13,42,26.90
2018,08,22,13,43,26.80
2018,08,22,13,44,26.80
2018,08,22,13,45,26.80
2018,08,22,13,46,26.90
2018,08,22,13,47,26.90
2018,08,22,13,48,26.90
2018,08,22,13,49,27.00
2018,08,22,13,50,27.00
2018,08,22,13,51,27.00
2018,08,22,13,52,27.00
2018,08,22,13,53,27.00
2018,08,22,13,54,27.10
2018,08,22,13,55,27.10
2018,08,22,13,56,27.10
2018,08,22,13,57,27.10
2018,08,22,13,58,27.10
2018,08,22,13,59,27.20
2018,08,22,14,00,27.30
2018,08,22,14,01,27.30
2018,08,22,14,02,27.40
2018,08,22,14,03,27.40
2018,08,22,14,04,27.50
2018,08,22,14,05,27.50
2018,08,22,14,06,27.60
2018,08,22,14,07,27.60
2018,08,22,14,08,27.60
2018,08,22,14,09,27.60
2018,08,22,14,10,27.60
2018,08,22,14,11,27.60
2018,08,22,14,12,27.60
2018,08,22,14,13,27.60
2018,08,22,14,14,27.60
2018,08,22,14,15,27.50
2018,08,22,14,16,27.50
2018,08,22,14,17,27.50
2018,08,22,14,18,27.60
2018,08,22,14,19,27.50
2018,08,22,14,20,27.50
2018,08,22,14,21,27.50
2018,08,22,14,22,27.50
2018,08,22,14,23,27.40
2018,08,22,14,24,27.40
2018,08,22,14,25,27.50
2018,08,22,14,26,27.50
2018,08,22,14,27,27.50
2018,08,22,14,28,27.50
2018,08,22,14,29,27.50
2018,08,22,14,30,27.50
2018,08,22,14,31,27.50
2018,08,22,14,32,27.50
2018,08,22,14,33,27.50
2018,08,22,14,34,27.50
2018,08,22,14,35,27.50
2018,08,22,14,36,27.50
2018,08,22,14,37,27.50
2018,08,22,14,38,27.50
2018,08,22,14,39,27.60
2018,08,22,14,40,27.60
2018,08,22,14,41,27.60
2018,08,22,14,42,27.60
2018,08,22,14,43,27.60
2018,08,22,14,44,27.60
2018,08,22,14,45,27.60
2018,08,22,14,46,27.50
2018,08,22,14,47,27.50
2018,08,22,14,48,27.40
2018,08,22,14,49,27.30
2018,08,22,14,50,27.20
2018,08,22,14,51,27.00
2018,08,22,14,52,26.90
2018,08,22,14,53,26.80
2018,08,22,14,54,26.80
2018,08,22,14,55,26.70
2018,08,22,14,56,26.70
2018,08,22,14,57,26.70
2018,08,22,14,58,26.80
2018,08,22,14,59,26.80
2018,08,22,15,00,26.80
2018,08,22,15,01,26.80
2018,08,22,15,02,26.80
2018,08,22,15,03,26.80
2018,08,22,15,04,26.80
2018,08,22,15,05,26.80
2018,08,22,15,06,26.70
2018,08,22,15,07,26.70
2018,08,22,15,08,26.70
2018,08,22,15,09,26.70
2018,08,22,15,10,26.80
2018,08,22,15,11,26.80
2018,08,22,15,12,26.80
2018,08,22,15,13,26.80
2018,08,22,15,14,26.80
2018,08,22,15,15,26.90
2018,08,22,15,16,26.90
2018,08,22,15,17,26.90
2018,08,22,15,18,26.90
2018,08,22,15,19,26.80
2018,08,22,15,20,26.80
2018,08,22,15,21,26.80
2018,08,22,15,22,26.70
2018,08,22,15,23,26.70
2018,08,22,15,24,26.70
2018,08,22,15,25,26.70
2018,08,22,15,26,26.70
2018,08,22,15,27,26.60
2018,08,22,15,28,26.60
2018,08,22,15,29,26.50
2018,08,22,15,30,26.50
2018,08,22,15,31,26.40
2018,08,22,15,32,26.40
2018,08,22,15,33,26.40
2018,08,22,15,34,26.40
2018,08,22,15,35,26.40
2018,08,22,15,36,26.30
2018,08,22,15,37,26.30
2018,08,22,15,38,26.30
2018,08,22,15,39,26.30
2018,08,22,15,40,26.30
2018,08,22,15,41,26.20
2018,08,22,15,42,26.20
2018,08,22,15,43,26.20
2018,08,22,15,44,26.20
2018,08,22,15,45,26.10
2018,08,22,15,46,26.10
2018,08,22,15,47,26.10
2018,08,22,15,48,26.10
2018,08,22,15,49,26.10
2018,08,22,15,50,26.10
2018,08,22,15,51,26.20
2018,08,22,15,52,26.20
2018,08,22,15,53,26.20
2018,08,22,15,54,26.20
2018,08,22,15,55,26.20
2018,08,22,15,56,26.20
2018,08,22,15,57,26.20
2018,08,22,15,58,26.20
2018,08,22,15,59,26.20
2018,08,22,16,00,26.30
2018,08,22,16,01,26.30
2018,08,22,16,02,26.30
2018,08,22,16,03,26.30
2018,08,22,16,04,26.30
2018,08,22,16,05,26.30
2018,08,22,16,06,26.30
2018,08,22,16,07,26.30
2018,08,22,16,08,26.30
2018,08,22,16,09,26.30
2018,08,22,16,10,26.30
2018,08,22,16,11,26.30
2018,08,22,16,12,26.30
2018,08,22,16,13,26.30
2018,08,22,16,14,26.30
2018,08,22,16,15,26.30
2018,08,22,16,16,26.20
2018,08,22,16,17,26.20
2018,08,22,16,18,26.20
2018,08,22,16,19,26.20
2018,08,22,16,20,26.20
2018,08,22,16,21,26.20
2018,08,22,16,22,26.20
2018,08,22,16,23,26.20
2018,08,22,16,24,26.10
2018,08,22,16,25,26.10
2018,08,22,16,26,26.10
2018,08,22,16,27,26.10
2018,08,22,16,28,26.10
2018,08,22,16,29,26.10
2018,08,22,16,30,26.10
2018,08,22,16,31,26.10
2018,08,22,16,32,26.10
2018,08,22,16,33,26.00
2018,08,22,16,34,26.00
2018,08,22,16,35,26.00
2018,08,22,16,36,26.00
2018,08,22,16,37,25.90
2018,08,22,16,38,25.90
2018,08,22,16,39,25.90
2018,08,22,16,40,25.90
2018,08,22,16,41,25.90
2018,08,22,16,42,25.90
2018,08,22,16,43,25.90
2018,08,22,16,44,25.90
2018,08,22,16,45,25.80
2018,08,22,16,46,25.80
2018,08,22,16,47,25.80
2018,08,22,16,48,25.80
2018,08,22,16,49,25.80
2018,08,22,16,50,25.80
2018,08,22,16,51,25.80
2018,08,22,16,52,25.80
2018,08,22,16,53,25.80
2018,08,22,16,54,25.80
2018,08,22,16,55,25.80
2018,08,22,16,56,25.80
2018,08,22,16,57,25.80
2018,08,22,16,58,25.80
2018,08,22,16,59,25.80
2018,08,22,17,00,25.80
2018,08,22,17,01,25.70
2018,08,22,17,02,25.70
2018,08,22,17,03,25.70
2018,08,22,17,04,25.70
2018,08,22,17,05,25.70
2018,08,22,17,06,25.70
2018,08,22,17,07,25.60
2018,08,22,17,08,25.60
2018,08,22,17,09,25.60
2018,08,22,17,10,25.60
2018,08,22,17,11,25.60
2018,08,22,17,12,25.60
2018,08,22,17,13,25.60
2018,08,22,17,14,25.50
2018,08,22,17,15,25.50
2018,08,22,17,16,25.40
2018,08,22,17,17,25.40
2018,08,22,17,18,25.40
2018,08,22,17,19,25.40